Regional Weather Roundup
Issued by NWS

Home | Current Version | Previous Version | Graphics & Text | Print | Product List | Glossary On
Versions: 1 2 3 4 5 6 7 8 9 10 11 12 13 14 15 16 17 18 19 20 21 22 23 24 25 26 27 28 29 30 31 32 33 34 35 36 37 38 39 40 41 42 43 44 45 46 47 48 49 50
043
ASUS45 KTFX 090210
RWRMT
MONTANA REGIONAL WEATHER ROUNDUP
NATIONAL WEATHER SERVICE GREAT FALLS MT
700 PM MST MON FEB 08 2016

NOTE: "FAIR" INDICATES FEW OR NO CLOUDS BELOW 12000 FEET WITH NO
SIGNIFICANT WEATHER AND/OR OBSTRUCTIONS TO VISIBILITY.

MTZ001>007-043-090300-
WEST OF THE DIVIDE

CITY           SKY/WX    TMP DP  RH WIND       PRES   REMARKS
KALISPELL      CLOUDY    34  27  75 CALM      30.52F
MISSOULA       PTCLDY    36  28  73 N3        30.54S
BUTTE          CLOUDY    35  28  75 E7        30.51R WCI  29
MULLAN PASS    PTCLDY    37  29  72 SW7       30.51F WCI  32
ANACONDA         N/A     37  28  70 SW7       30.50F
DEER LODGE       N/A     36  30  80 CALM      30.51S
HAMILTON         N/A     37  28  70 CALM      30.52S
LIBBY            N/A     34  27  75 CALM      30.53R
PLAINS           N/A     36  27  70 CALM      30.50S
$$

MTZ008-052>055-090300-
SOUTHWEST MONTANA

CITY           SKY/WX    TMP DP  RH WIND       PRES   REMARKS
BOZEMAN        CLOUDY    35  28  75 CALM      30.47S
DILLON         CLOUDY    33  27  78 SE9       30.50R WCI  25
ENNIS          CLEAR     34  27  75 S21       30.55S WCI  22
TWIN BRIDGES     N/A     38  27  65 E3        30.43R
$$

MTZ009-010-012-014-046-048-049-054-090300-
EAST SLOPES AND CENTRAL MONTANA

CITY           SKY/WX    TMP DP  RH WIND       PRES   REMARKS
CUT BANK       CLOUDY    46  30  53 W25       30.29F
GREAT FALLS    CLOUDY    41  28  60 SW10      30.33F
MALMSTROM AFB  CLOUDY    49  29  47 SW16      30.33F
HELENA         CLOUDY    49  34  56 W17       30.42S
CHOTEAU          N/A     50  30  46 VRB5G13   30.33F
CONRAD           N/A     46  30  54 CALM      30.29F
$$

MTZ011-013-016-021-045-047-050-051-090300-
NORTH CENTRAL MONTANA

CITY           SKY/WX    TMP DP  RH WIND       PRES   REMARKS
HAVRE          CLOUDY    35  27  72 CALM      30.27F
LEWISTOWN      CLOUDY    39  29  67 W13       30.32S WCI  31
N BAR RANCH      N/A     43  27  52 W5        30.32S
CHINOOK          N/A     36  27  69 W5        30.27S
$$

MTZ017>020-022>027-061-062-090300-
NORTHEAST MONTANA

CITY           SKY/WX    TMP DP  RH WIND       PRES   REMARKS
GLASGOW        CLOUDY    30  22  72 E8        30.25F WCI  22
JORDAN           N/A     32  27  81 W5        30.26F
SIDNEY         CLOUDY    34  18  51 CALM      30.28F
WOLF POINT     CLOUDY    30  23  75 CALM      30.27F
PLENTYWOOD       N/A     34  19  55 CALM      30.25F
POPLAR           N/A     36  18  48 CALM      30.28F
SCOBEY           N/A     31  16  54 CALM      30.21
$$

MTZ028>42-056>058-090300-
SOUTHCENTRAL AND SOUTHEAST MONTANA

CITY           SKY/WX    TMP DP  RH WIND       PRES   REMARKS
BAKER          CLEAR     33  12  41 CALM      30.26R
BILLINGS       CLOUDY    49  27  42 W21       30.31F
LIVINGSTON     CLOUDY    45  28  51 W16       30.42R
MILES CITY     CLOUDY    38  25  59 N3        30.25F
EKALAKA          N/A     33  11  40 CALM      30.19
FORSYTH          N/A     43  27  52 CALM      30.26F
LAUREL           N/A     45  26  47 W6        30.29S
ROUNDUP          N/A     44  25  47 W8        30.19F
$$

REGIONAL REPORTS...DAKOTAS

CITY           SKY/WX    TMP DP  RH WIND       PRES   REMARKS
WILLISTON      CLOUDY    32  21  64 NE6       30.28F WCI  26
MINOT          PTCLDY    20  12  71 NW8       30.26F WCI  10
DICKINSON      CLOUDY    30  15  53 NW8       30.23F WCI  22
BEACH          CLOUDY    30  14  51 N5        30.29S
CROSBY         MOCLDY    23  23 100 S3        30.28F
TIOGA          CLOUDY    25  23  93 NW6       30.31F WCI  18
WATFORD CITY   CLOUDY    30  19  64 NE6       30.28S WCI  24
BISMARCK       CLOUDY    31  17  56 NW13      30.26R WCI  21
GRAND FORKS    MOCLDY    10   2  69 N21       30.25F WCI  -9
FARGO          CLOUDY    10   3  73 N23       30.22S WCI -10
BUFFALO SD       N/A     36  13  38 NW8       30.18S WCI  30
RAPID CITY     CLOUDY    35  16  45 NW5       30.23F
$$

REGIONAL REPORTS...WYOMING/IDAHO/WASHINGTON

CITY           SKY/WX    TMP DP  RH WIND       PRES   REMARKS
GILLETTE       CLOUDY    34  26  72 W8        30.28F WCI  27
SHERIDAN       CLOUDY    42  28  57 NW12      30.31R
BUFFALO WY     CLOUDY    44  27  51 NW8       30.31F
CODY           CLOUDY    37  19  48 E5        30.37R
YELLOWSTONE LA   N/A     24  18  77 CALM      30.56S
IDAHO FALLS    FOG       18  16  92 N3        30.65S VSB 1/8
SALMON         CLOUDY    23  18  80 SE5       30.64S
BOISE          CLEAR     40  32  73 CALM      30.64R
SPOKANE        MOCLDY    42  32  67 N5        30.52S
$$

REGIONAL REPORTS...ALBERTA

CITY           SKY/WX    TMP DP  RH WIND       PRES   REMARKS
EDMONTON       MOCLDY    36  27  69 S6        30.21F WCI  31
CALGARY        PTCLDY    46  23  39 VRB2      30.23S
LETHBRIDGE     PTCLDY    48  32  53 W21G28    30.24F
MEDICINE HAT   PTCLDY    39  27  60 NE3       30.25S
WATERTON GATE    N/A     45  28  53 SW24G40     N/A
CARDSTON         N/A     50  27  40 W17G26      N/A
MILK RIVER       N/A     41  28  60 W14         N/A
ONEFOUR          N/A     37  30  75 NW12        N/A  WCI  30
$$

REGIONAL REPORTS...SASKATCHEWAN

CITY           SKY/WX    TMP DP  RH WIND       PRES   REMARKS
SWIFT CURRENT  CLOUDY    34  25  69 W9        30.20F WCI  26
SASKATOON      CLEAR     25  21  86 CALM      30.23F
CYPRESS HILLS    N/A     37  25  60 NW6         N/A
VAL MARIE        N/A     30  25  80 SW7         N/A  WCI  23
ROCKGLEN         N/A     27  19  74 SW3         N/A
ASSINIBOIA       N/A     30  28  93 SW7         N/A  WCI  23
$$




USA.gov is the U.S. government's official web portal to all federal, state and local government web resources and services.